FALCON 9 DEB (53751 NORAD) Tracking and Keplerian Element Data

This shows tracking and keplerian element data for the satellite.

Feedback or suggestion? Click here.




ElementValue
Catalog53751
NameFALCON 9 DEB
Epoch Orbit584
Epoch Day284.59950246
Epoch Year2022
RAAN86.3401
Inclination53.2002
Eccentricity0.0010056
Argument of Perigee313.8804
Mean Anonmoly46.1408
Mean Motion16.27395699
Decay Rate0.03122236
L11 53751U 22107BD 22284.59950246 .03122236 12023-4 83761-3 0 9990
L22 53751 53.2002 86.3401 0010056 313.8804 46.1408 16.27395699 5843



Live tracking and technical data element details for FALCON 9 DEB (NORAD 53751). FALCON 9 DEB can be tracked NOW for your location showing map with azimuth and elevation plus other details from your city location.







IsCatalogInMostPopularTable: catalog: 53751, numindb: -1

Insert: records affected: 1


GetName: 53751 FALCON 9 DEB

Hit Count: inserted at: Thu, 08 Dec 2022 10:30:52 GMT